State College, PA

2:48 PM EST on November 21, 2017 (GMT -0500)
University Park

Weather History for KUNV - September, 2012

Change the Weather History Date:

Tuesday, September 11, 2012

  Actual Average Record
Temperature  
Mean Temperature 56 °F -  
Max Temperature 69 °F 75 °F 94 °F (1964)
Min Temperature 42 °F 52 °F 39 °F (1932)
Degree Days  
Heating Degree Days 10    
Growing Degree Days 6 (Base 50)    
Moisture  
Dew Point 45 °F    
Average Humidity 75    
Maximum Humidity 93    
Minimum Humidity 43    
Precipitation  
Precipitation 0.00 in - - ()
Sea Level Pressure  
Sea Level Pressure 30.27 in    
Wind  
Wind Speed 1 mph (SW)    
Max Wind Speed 7 mph    
Max Gust Speed -    
Visibility 10 miles    
Events      
Averages and records for this station are not official NWS values.
T = Trace of Precipitation, MM = Missing Value Source: NWS Daily Summary

Daily Weather History Graph

Daily Weather History Graph

Search for Another Location

Airport or City:

Trip Planner

Search our weather history database for the weather conditions in past years. The results will help you decide how hot, cold, wet, or windy it might be!

Date:

Astronomy

Sep. 11, 2012 Rise Set
Actual Time 6:48 AM EDT 7:26 PM EDT
Civil Twilight 6:20 AM EDT 7:54 PM EDT
Nautical Twilight 5:48 AM EDT 8:26 PM EDT
Astronomical Twilight 5:14 AM EDT 9:00 PM EDT
Moon 2:02 AM EDT (9/11) 4:36 PM EDT (9/11)
Length of Visible Light 13h 33m
Length of Day
12h 37m
Waning Crescent, 21% of the Moon is Illuminated
Sep 11
Waning Crescent
Sep 15
New
Sep 22
First Quarter
Sep 29
Full
Oct 8
Last Quarter

Hourly Weather History & Observations

Time (EDT) Temp. Dew Point Humidity Pressure Visibility Wind Dir Wind Speed Gust Speed Precip Events Conditions
12:15 AM 48.2 °F 43.0 °F 82% 30.21 in 10.0 mi Calm Calm - N/A   Clear
12:55 AM 46.8 °F 43.0 °F 87% 30.21 in 10.0 mi Calm Calm - N/A   Clear
1:15 AM 47.1 °F 43.0 °F 86% 30.22 in 10.0 mi SSW 3.5 mph - N/A   Clear
1:35 AM 48.9 °F 41.0 °F 74% 30.22 in 10.0 mi Calm Calm - N/A   Clear
1:55 AM 46.9 °F 41.2 °F 80% 30.23 in 10.0 mi Calm Calm - N/A   Clear
2:15 AM 46.0 °F 41.9 °F 85% 30.23 in 10.0 mi Calm Calm - N/A   Clear
2:35 AM 46.8 °F 42.1 °F 84% 30.23 in 10.0 mi Calm Calm - N/A   Clear
2:55 AM 46.0 °F 40.6 °F 81% 30.23 in 10.0 mi Calm Calm - N/A   Clear
3:15 AM 44.6 °F 41.7 °F 90% 30.23 in 10.0 mi Calm Calm - N/A   Clear
3:35 AM 45.3 °F 41.9 °F 88% 30.23 in 10.0 mi Calm Calm - N/A   Clear
3:55 AM 44.4 °F 41.2 °F 88% 30.23 in 10.0 mi Calm Calm - N/A   Clear
4:15 AM 44.8 °F 41.5 °F 88% 30.23 in 10.0 mi Calm Calm - N/A   Clear
4:35 AM 45.5 °F 40.8 °F 84% 30.25 in 10.0 mi Calm Calm - N/A   Clear
4:55 AM 44.2 °F 39.9 °F 85% 30.25 in 10.0 mi Calm Calm - N/A   Clear
5:15 AM 43.7 °F 40.8 °F 90% 30.25 in 10.0 mi Calm Calm - N/A   Clear
5:35 AM 43.3 °F 40.8 °F 91% 30.26 in 10.0 mi Calm Calm - N/A   Clear
5:53 AM 42.8 °F 41.0 °F 93% 30.27 in 10.0 mi Calm Calm - N/A   Clear
6:53 AM 42.8 °F 41.0 °F 93% 30.29 in 10.0 mi Calm Calm - N/A   Clear
7:53 AM 44.6 °F 42.8 °F 93% 30.30 in 10.0 mi Calm Calm - N/A   Clear
8:53 AM 51.8 °F 44.6 °F 76% 30.31 in 10.0 mi Calm Calm - N/A   Clear
9:53 AM 57.2 °F 44.6 °F 63% 30.32 in 10.0 mi Calm Calm - N/A   Clear
10:53 AM 62.6 °F 44.6 °F 52% 30.32 in 10.0 mi Calm Calm - N/A   Clear
11:53 AM 66.2 °F 46.4 °F 49% 30.32 in 10.0 mi SW 4.6 mph - N/A   Partly Cloudy
12:53 PM 68.0 °F 44.6 °F 43% 30.31 in 10.0 mi ENE 3.5 mph - N/A   Partly Cloudy
1:53 PM 69.8 °F 46.4 °F 43% 30.30 in 10.0 mi WSW 6.9 mph - N/A   Scattered Clouds
2:53 PM 69.8 °F 46.4 °F 43% 30.28 in 10.0 mi SW 3.5 mph - N/A   Scattered Clouds
5:53 PM 68.0 °F 48.2 °F 49% 30.27 in 10.0 mi South 5.8 mph - N/A   Scattered Clouds
6:53 PM 66.2 °F 48.2 °F 52% 30.26 in 10.0 mi Calm Calm - N/A   Clear
7:53 PM 62.6 °F 48.2 °F 59% 30.27 in 10.0 mi Calm Calm - N/A   Clear
8:53 PM 62.6 °F 48.2 °F 59% 30.29 in 10.0 mi Calm Calm - N/A   Clear
9:15 PM 61.5 °F 48.4 °F 62% 30.29 in 10.0 mi West 3.5 mph - N/A   Clear
9:35 PM 58.5 °F 48.7 °F 70% 30.30 in 10.0 mi Calm Calm - N/A   Clear
9:55 PM 59.0 °F 49.3 °F 70% 30.30 in 10.0 mi Calm Calm - N/A   Clear
10:15 PM 58.6 °F 48.9 °F 70% 30.30 in 10.0 mi Calm Calm - N/A   Clear
10:35 PM 55.8 °F 49.1 °F 78% 30.30 in 10.0 mi Calm Calm - N/A   Clear
10:55 PM 55.9 °F 49.1 °F 78% 30.30 in 10.0 mi Calm Calm - N/A   Clear
11:15 PM 55.2 °F 49.5 °F 81% 30.30 in 10.0 mi Calm Calm - N/A   Clear
11:35 PM 53.4 °F 49.1 °F 85% 30.30 in 10.0 mi SSW 3.5 mph - N/A   Clear
11:55 PM 54.0 °F 48.9 °F 83% 30.31 in 10.0 mi Calm Calm - N/A   Clear